STARLINK-11298 [DTC]

Last updated on Fri Oct 04 2024 00:02:04 GMT+0000 (Coordinated Universal Time)

1 61211U 24171M 24277.58334491 -.00503459 00000+0 -21539-2 0 9994 2 61211 53.1630 231.3688 0000724 119.7591 45.5776 15.85620423 3281
UTC large
Height (km)
Speed (km/s)
/
Latitude / Longitude
Inclination (degrees)
Orbital Period (minutes)
Azimuth
Elevation
Range (km)
Doppler Factor

Next 0 passes for location: London (51.5072 / 0.1276)

Sorry there are no passes over London.